GoFree 85t Surf

surf_boreas

Completions: 6674 (normal style)
Map tier: 1
Linear Map
Bonus: 0
Rank Player Name Best Time Start Speed End Speed
541chakwizzi 00:41.3789436 u/s4317 u/s
542lillieputter 00:41.3906464 u/s4106 u/s
543xsany 00:41.3906316 u/s3881 u/s
544dylan 00:41.3906443 u/s4302 u/s
545distance 00:41.3906459 u/s4235 u/s
546JuniperX 00:41.4023427 u/s4208 u/s
547darwin 00:41.4023451 u/s4214 u/s
548comet_s1 00:41.4023323 u/s4340 u/s
549idonotknowwhattomakemyname 00:41.4023415 u/s4306 u/s
550† 00:41.4023446 u/s4231 u/s
551Matt JJ 00:41.4141366 u/s4242 u/s
552oCadence 00:41.4141422 u/s4242 u/s
553Dropper Post Cable 00:41.4141329 u/s4306 u/s
554Arowman73 00:41.4141406 u/s4268 u/s
555Steven Faulkner 00:41.4141415 u/s4370 u/s
556smelvinsanchez887@outlook.com 00:41.4258492 u/s4225 u/s
557Viiax 00:41.4258437 u/s4309 u/s
558Azur 00:41.4258405 u/s4295 u/s
559ᴿˢKevätJN 00:41.4258455 u/s4125 u/s
560Teslik 00:41.4258398 u/s4281 u/s
561Aznad 00:41.4375428 u/s4285 u/s
562TurdBoner 00:41.4375421 u/s3810 u/s
563swagger 00:41.4375371 u/s4258 u/s
564❟❛❟kimi 00:41.4375348 u/s4352 u/s
565Hazard. 00:41.4492473 u/s3806 u/s
566TopDawgFoundation 00:41.4492462 u/s4259 u/s
567kofji(but better) 00:41.4492430 u/s4390 u/s
568PeppyFuzzball34 00:41.4492499 u/s4324 u/s
569pulc 00:41.4492367 u/s4234 u/s
570tatnohead 00:41.4609431 u/s4256 u/s